Terminal Aerodrome Forecast
Issued by NWS Greer, SC

Home | Current Version | Previous Version | Text Only | Print | Product List | Glossary On
Versions: 1 2 3 4 5 6 7 8 9 10 11 12 13 14 15 16 17 18 19 20 21 22 23 24 25 26 27 28 29 30 31 32 33 34 35 36 37
000
FTUS42 KGSP 261413 AAA
TAFAVL
TAF AMD
KAVL 261413Z 2614/2712 19005KT P6SM VCSH SCT015 OVC025
     FM261800 17007KT P6SM BKN040
     FM270000 16005KT P6SM BKN050 PROB30 2700/2705 4SM TSRA BKN040CB
     FM270500 15003KT P6SM VCTS OVC025CB
     FM270800 15004KT 4SM -SHRA BR OVC008 PROB30 2708/2712 2SM TSRA
      OVC008CB=

USA.gov is the U.S. government's official web portal to all federal, state and local government web resources and services.